| time (UTC) | temp C | wind direction | speed KPH | gust KPH | rain 1hr cm | rain 24hr cm | rain mn cm | humidity % | barometer mb |
| 20260503204623 | 26 | 132 | 16.1 | 20.9 | 0.00 | 0.00 | 0.00 | 42 | 1018.1 |
| 20260503203623 | 26 | 130 | 8.0 | 17.7 | 0.00 | 0.00 | 0.00 | 38 | 1018.1 |
| 20260503201623 | 26 | 178 | 8.0 | 25.7 | 0.00 | 0.00 | 0.00 | 41 | 1018.8 |
| 20260503195623 | 26 | 168 | 8.0 | 17.7 | 0.00 | 0.00 | 0.00 | 41 | 1019.1 |
| 20260503194623 | 25 | 101 | 16.1 | 19.3 | 0.00 | 0.00 | 0.00 | 40 | 1019.0 |
| 20260503193623 | 26 | 132 | 19.3 | 24.1 | 0.00 | 0.00 | 0.00 | 38 | 1019.3 |
| 20260503192623 | 25 | 173 | 11.3 | 22.5 | 0.00 | 0.00 | 0.00 | 39 | 1019.5 |
| 20260503191623 | 25 | 132 | 12.9 | 20.9 | 0.00 | 0.00 | 0.00 | 37 | 1019.6 |
| 20260503190623 | 25 | 132 | 4.8 | 16.1 | 0.00 | 0.00 | 0.00 | 43 | 1019.6 |
| 20260503185623 | 25 | 142 | 4.8 | 17.7 | 0.00 | 0.00 | 0.00 | 39 | 1020.0 |
| 20260503184623 | 25 | 132 | 14.5 | 24.1 | 0.00 | 0.00 | 0.00 | 42 | 1020.2 |
| 20260503183623 | 25 | 140 | 8.0 | 22.5 | 0.00 | 0.00 | 0.00 | 41 | 1020.2 |
| 20260503181623 | 25 | 142 | 6.4 | 17.7 | 0.00 | 0.00 | 0.00 | 41 | 1020.5 |
| 20260503180623 | 25 | 189 | 11.3 | 19.3 | 0.00 | 0.00 | 0.00 | 45 | 1020.9 |
| 20260503175623 | 25 | 114 | 4.8 | 16.1 | 0.00 | 0.00 | 0.00 | 43 | 1021.0 |
| 20260503174623 | 25 | 178 | 6.4 | 19.3 | 0.00 | 0.00 | 0.00 | 40 | 1021.2 |
| 20260503173623 | 25 | 146 | 6.4 | 17.7 | 0.00 | 0.00 | 0.00 | 42 | 1021.2 |
| 20260503172623 | 25 | 249 | 8.0 | 17.7 | 0.00 | 0.00 | 0.00 | 42 | 1021.4 |
| 20260503171623 | 25 | 101 | 6.4 | 19.3 | 0.00 | 0.00 | 0.00 | 39 | 1021.4 |
| 20260503170623 | 25 | 189 | 4.8 | 14.5 | 0.00 | 0.00 | 0.00 | 41 | 1021.6 |
| 20260503150623 | 22 | 198 | 11.3 | 16.1 | 0.00 | 0.00 | 0.00 | 56 | 1022.2 |
| 20260503130623 | 16 | 220 | 6.4 | 8.0 | 0.00 | 0.00 | 0.00 | 73 | 1021.6 |
| 20260503110623 | 11 | 229 | 0.0 | 0.0 | 0.00 | 0.00 | 0.00 | 81 | 1020.6 |
| 20260503081622 | 14 | 230 | 0.0 | 0.0 | 0.00 | 0.00 | 0.00 | 77 | 1020.3 |
| 20260503080623 | 13 | 230 | 0.0 | 3.2 | 0.00 | 0.00 | 0.00 | 80 | 1020.3 |
| 20260503071622 | 15 | 230 | 0.0 | 0.0 | 0.00 | 0.00 | 0.00 | 73 | 1020.6 |
| 20260503070622 | 15 | 230 | 0.0 | 3.2 | 0.00 | 0.00 | 0.00 | 73 | 1020.7 |
| 20260503053623 | 16 | 229 | 3.2 | 4.8 | 0.00 | 0.00 | 0.00 | 68 | 1021.0 |
| 20260503051622 | 16 | 196 | 3.2 | 4.8 | 0.00 | 0.00 | 0.00 | 68 | 1021.0 |
| 20260503050622 | 16 | 193 | 3.2 | 4.8 | 0.00 | 0.00 | 0.00 | 68 | 1020.9 |
| 20260503045622 | 16 | 193 | 1.6 | 4.8 | 0.00 | 0.00 | 0.03 | 68 | 1020.8 |
| 20260503043622 | 16 | 200 | 4.8 | 4.8 | 0.00 | 0.00 | 0.03 | 70 | 1020.9 |
| 20260503042622 | 15 | 210 | 3.2 | 4.8 | 0.00 | 0.00 | 0.03 | 73 | 1020.8 |
| 20260503041622 | 15 | 117 | 0.0 | 0.0 | 0.00 | 0.00 | 0.03 | 73 | 1020.7 |
| 20260503040623 | 15 | 117 | 0.0 | 0.0 | 0.00 | 0.00 | 0.03 | 73 | 1020.7 |
| 20260503035622 | 16 | 117 | 0.0 | 0.0 | 0.00 | 0.00 | 0.03 | 72 | 1020.7 |
| 20260503034622 | 16 | 117 | 0.0 | 0.0 | 0.00 | 0.00 | 0.03 | 72 | 1020.6 |
| 20260503033622 | 16 | 117 | 0.0 | 0.0 | 0.00 | 0.00 | 0.03 | 73 | 1020.5 |
| 20260503032622 | 16 | 117 | 0.0 | 0.0 | 0.00 | 0.00 | 0.03 | 73 | 1020.5 |
| 20260503025622 | 16 | 117 | 0.0 | 0.0 | 0.00 | 0.00 | 0.03 | 72 | 1020.3 |
| 20260503024622 | 16 | 117 | 0.0 | 0.0 | 0.00 | 0.00 | 0.03 | 71 | 1020.1 |
| 20260503023622 | 16 | 117 | 0.0 | 0.0 | 0.00 | 0.00 | 0.03 | 70 | 1019.8 |
| 20260503022622 | 17 | 117 | 0.0 | 0.0 | 0.00 | 0.00 | 0.03 | 69 | 1019.7 |
| 20260503021622 | 17 | 117 | 0.0 | 0.0 | 0.00 | 0.00 | 0.03 | 68 | 1019.6 |
| 20260503020622 | 17 | 117 | 0.0 | 0.0 | 0.00 | 0.00 | 0.03 | 66 | 1019.6 |
| 20260503014623 | 18 | 117 | 0.0 | 0.0 | 0.00 | 0.00 | 0.03 | 63 | 1019.5 |
| 20260503013622 | 18 | 117 | 0.0 | 0.0 | 0.00 | 0.00 | 0.03 | 63 | 1019.5 |
| 20260503012622 | 19 | 117 | 0.0 | 0.0 | 0.00 | 0.00 | 0.03 | 62 | 1019.5 |
| 20260503011622 | 20 | 117 | 0.0 | 0.0 | 0.00 | 0.00 | 0.03 | 61 | 1019.3 |
| 20260503010622 | 20 | 117 | 0.0 | 0.0 | 0.00 | 0.00 | 0.03 | 59 | 1019.3 |
| 20260503005622 | 21 | 117 | 0.0 | 3.2 | 0.00 | 0.00 | 0.03 | 57 | 1019.3 |
| 20260503004622 | 21 | 95 | 3.2 | 4.8 | 0.00 | 0.00 | 0.03 | 54 | 1019.2 |
| 20260503003622 | 21 | 102 | 0.0 | 6.4 | 0.00 | 0.00 | 0.03 | 53 | 1019.2 |
| 20260503002622 | 22 | 92 | 3.2 | 9.7 | 0.00 | 0.00 | 0.03 | 50 | 1019.2 |
| 20260503001622 | 22 | 92 | 1.6 | 4.8 | 0.00 | 0.00 | 0.03 | 51 | 1019.1 |
| 20260503000622 | 22 | 100 | 4.8 | 6.4 | 0.00 | 0.00 | 0.03 | 49 | 1019.1 |
| 20260502234622 | 22 | 26 | 6.4 | 9.7 | 0.00 | 0.00 | 0.03 | 46 | 1019.0 |
| 20260502231622 | 23 | 33 | 3.2 | 12.9 | 0.00 | 0.00 | 0.03 | 41 | 1018.9 |
| 20260502230622 | 23 | 44 | 4.8 | 16.1 | 0.00 | 0.00 | 0.03 | 42 | 1018.9 |
| 20260502224622 | 23 | 106 | 3.2 | 14.5 | 0.00 | 0.00 | 0.03 | 41 | 1018.8 |
| 20260502223622 | 23 | 92 | 6.4 | 16.1 | 0.00 | 0.00 | 0.03 | 42 | 1018.9 |
| 20260502222622 | 23 | 96 | 6.4 | 17.7 | 0.00 | 0.00 | 0.03 | 42 | 1019.0 |
| 20260502221622 | 23 | 22 | 6.4 | 16.1 | 0.00 | 0.00 | 0.03 | 39 | 1019.1 |
| 20260502220622 | 23 | 80 | 6.4 | 14.5 | 0.00 | 0.00 | 0.03 | 39 | 1019.0 |
| 20260502214622 | 23 | 78 | 4.8 | 12.9 | 0.00 | 0.00 | 0.03 | 43 | 1019.2 |
| 20260502213622 | 23 | 77 | 6.4 | 16.1 | 0.00 | 0.00 | 0.03 | 43 | 1019.4 |
| 20260502212622 | 23 | 47 | 9.7 | 14.5 | 0.00 | 0.00 | 0.03 | 44 | 1019.5 |
| 20260502210622 | 23 | 52 | 4.8 | 14.5 | 0.00 | 0.00 | 0.03 | 44 | 1019.8 |
| 20260502205622 | 23 | 28 | 6.4 | 22.5 | 0.00 | 0.00 | 0.03 | 42 | 1020.1 |